Location: Unspecified
(49.9820°N, 20.4363°E)
Time: 22:27:54
(UTC+02:00)

ISS - Pass Details

Date: 15 July 2018
Orbit: 402 x 408 km, 51.6° (Epoch: 20 July)

Event Time Altitude Azimuth Distance (km) Brightness Sun altitude
Exits shadow 01:49:51 31° 257° (WSW) 751 -2.8 -17.0°
Maximum altitude 01:51:19 86° 340° (NNW) 413 -3.9 -16.9°
Drops below altitude 10° 01:54:37 10° 74° (ENE) 1,473 -0.6 -16.8°
Sets 01:56:43 0° 75° (ENE) 2,336 0.5 -16.7°
